Noshiro, Japan

7:47 PM JST on April 25, 2017 (GMT +0900)
Ushu Highway (Akita Highway) | | Change Station

Elev 177 ft 40.00 °N, 140.08 °E | Updated 6 minutes ago

Rain
Rain
57.7 °F
Feels Like 57.7 °F
N
6.8
Wind Variable Wind from NE
Gusts 11.8 mph

Today
High -- | Low -- °F
--% Chance of Precip.
Yesterday
High -- | Low -- °F
Precip. -- in
Pressure 30.06 in
Visibility 2.8 miles
Clouds Few 1500 ft
Scattered Clouds 3000 ft
Mostly Cloudy 4000 ft
Dew Point 50 °F
Humidity 74%
Rainfall 0.02 in
Snow Depth Not available.
4:47 AM 6:28 PM
Waning Crescent, 2% visible
SPECI RJSA 251035Z 24012KT 4500 -SHRA BR FEW015 SCT030 BKN040 12/09 Q1018 RMK 1CU015 4CU030 6CU040 A3008
Pressure 30.06 in
Visibility 2.8 miles
Clouds Few 1500 ft
Scattered Clouds 3000 ft
Mostly Cloudy 4000 ft
Dew Point 50 °F
Humidity 74%
Rainfall 0.02 in
Snow Depth Not available.
4:47 AM 6:28 PM
Waning Crescent, 2% visible
SPECI RJSA 251035Z 24012KT 4500 -SHRA BR FEW015 SCT030 BKN040 12/09 Q1018 RMK 1CU015 4CU030 6CU040 A3008

Get Severe Weather Alerts

Thanks for signing up!

Be on the lookout for a verification email in your inbox.

You'll start receiving the daily forecast at 8 AM.

×

10-Day Weather Forecast

No radar image for this location.
×

Almanac

Astronomy

Apr. 25, 2017 Rise Set
Actual Time
Civil Twilight
Nautical Twilight
Astronomical Twilight
Moon
Length of Visible Light
Length of Day
Tomorrow will be .
, % of the Moon is Illuminated

Today's Extremes

Country Highs Country Lows

Community

WunderPhotos

WunderBlog® & News

Nearby

Air Quality

  Air Quality AQ Index Pollutant
Not available.

Snow Depth

Station Depth Elevation

Earthquake Activity

City Distance Mag. Time & Date
Minimum magnitude displayed is 2.5.

Coastal Water Temperatures

Place Temperature

Stations

Nearby Weather Stations

Station Location Temp. Windchill Dew Point Humidity Wind Precip. Elev Updated Type